Wind_Speed
15 16 17 17 17 18 18 17 17 16 16 15 15 15 15 14 13 13 14 14 13 13 13 13 13 12 13 13 14 15 14 14 13 13 13 14 14 13 12 12 12 12 13
15 15 17 17 18 20 19 18 17 17 17 17 16 16 16 15 14 13 14 15 15 14 13 13 14 13 13 13 13 14 15 15 15 14 15 14 14 14 13 13 14 14 14
17 17 17 18 20 20 19 19 18 18 18 18 17 16 16 16 16 15 15 15 15 14 14 14 14 15 14 14 14 15 15 15 16 16 16 15 14 15 14 14 15 15 15
18 19 19 20 20 20 19 19 18 19 19 19 18 17 17 17 17 17 17 17 16 15 15 15 15 15 15 15 15 15 16 16 16 16 16 17 17 16 15 15 16 15 15
19 19 20 21 20 19 19 20 20 20 19 19 19 19 18 18 18 19 18 18 17 17 16 16 16 16 16 16 17 17 16 16 17 17 16 17 17 17 16 15 16 16 17
20 20 21 22 20 20 21 21 21 21 20 19 19 19 19 19 20 20 19 19 19 18 18 18 17 17 17 18 17 17 17 18 18 17 17 17 16 17 16 16 16 17 17
20 21 21 21 21 22 22 22 23 23 22 22 21 20 21 21 20 20 20 20 19 19 20 20 19 19 19 19 19 18 18 18 18 18 17 17 17 17 17 17 17 17 16
22 22 22 21 22 23 23 24 24 24 24 23 23 23 23 23 22 22 22 22 22 22 21 22 21 21 21 21 20 20 19 18 19 19 18 18 18 18 18 18 18 17 17
24 23 22 22 23 23 24 25 25 24 25 25 24 24 24 25 25 24 24 23 24 24 23 23 23 22 22 22 21 21 20 20 20 20 20 19 19 18 18 18 18 18 18
24 22 22 23 23 24 25 25 26 26 25 25 25 24 24 25 26 26 25 25 25 25 24 24 24 23 23 22 21 21 20 20 20 21 21 20 20 20 19 18 18 18 18
24 24 24 24 25 25 26 27 27 27 27 26 26 26 25 25 26 26 25 25 26 26 25 25 25 24 23 23 22 22 21 21 21 22 21 21 21 20 19 19 18 18 19
25 26 26 26 27 26 27 27 27 28 27 26 26 26 26 26 26 26 26 26 26 25 25 26 26 26 25 25 23 23 23 23 22 22 22 21 21 21 21 20 20 20 20
27 26 26 27 27 28 27 27 27 27 27 26 26 26 26 26 25 26 26 26 26 26 26 26 26 26 26 26 26 25 24 24 23 23 23 22 22 23 22 22 22 22 21
26 26 25 26 27 27 27 26 26 26 26 26 25 25 26 26 26 26 26 27 27 27 27 27 27 27 27 26 26 26 26 25 24 23 23 23 24 24 24 24 23 22 21
26 26 26 27 26 25 25 25 25 25 25 26 26 26 26 26 26 26 26 27 26 26 27 27 27 27 27 26 26 26 26 25 24 23 23 24 24 24 24 24 24 23 22
27 27 27 27 26 25 25 25 25 26 26 26 26 26 26 26 26 26 26 26 26 26 27 27 27 26 26 25 26 26 26 26 25 24 24 24 24 24 24 24 24 24 23
26 26 26 26 26 26 25 25 25 26 26 26 26 26 26 26 26 26 26 26 26 26 26 25 25 24 24 24 24 24 25 25 26 26 25 25 25 25 26 25 24 25 25
26 25 25 26 26 26 26 26 27 27 27 27 26 27 26 26 26 26 26 26 26 26 26 27 27 27 27 27 26 25 25 24 25 25 24 24 25 26 26 26 25 25 25
25 25 26 26 27 27 26 26 26 26 26 26 27 27 26 26 27 27 27 27 27 27 28 28 28 27 27 27 27 26 26 25 25 25 25 25 25 25 25 25 25 25 25
26 26 26 26 27 27 27 27 27 26 26 26 26 26 26 27 27 27 27 27 27 28 28 28 28 28 27 27 26 26 26 26 26 26 25 25 26 26 25 25 25 25 25
27 27 27 27 27 27 27 27 26 27 28 27 27 26 26 27 28 28 28 27 28 29 29 28 28 28 28 28 27 26 25 26 27 27 26 26 26 26 26 26 26 26 26
27 28 28 28 28 28 28 27 27 28 28 28 27 27 27 27 27 27 27 27 27 27 28 27 27 27 27 27 27 26 26 26 27 27 27 27 27 27 26 26 26 26 26
28 28 28 28 28 28 28 28 27 27 27 27 27 26 26 26 26 26 25 26 26 26 25 25 25 25 26 26 26 26 26 26 27 27 28 28 27 26 26 25 25 26 26
28 28 28 28 28 28 28 28 27 27 27 27 26 26 25 25 25 25 24 24 24 24 24 24 24 25 25 25 25 25 26 26 26 26 27 27 27 26 25 25 25 25 25
27 27 27 27 27 27 27 27 27 27 27 27 26 26 25 25 24 24 24 24 24 23 23 23 23 24 24 24 24 25 25 26 26 25 25 25 25 25 25 25 24 24 25
26 26 26 26 26 27 27 27 27 27 27 27 27 26 26 25 24 24 23 23 23 23 23 23 23 23 24 24 23 24 24 25 25 25 24 24 25 25 24 24 24 25 24
Wind_Direction
303 305 308 310 310 309 307 310 308 308 308 307 307 306 304 303 302 301 300 301 299 295 293 289 289 288 287 284 275 271 269 268 265 268 270 267 265 263 266 270 272 271 273
293 300 305 302 303 305 305 304 303 304 304 304 303 303 302 301 301 301 300 298 297 294 293 291 289 289 286 283 280 272 269 269 268 267 267 267 266 268 268 269 274 274 273
297 304 307 305 301 300 301 301 300 301 302 301 301 300 300 298 296 296 296 297 298 292 293 291 289 289 285 280 278 275 273 271 267 266 267 266 266 265 268 270 272 272 273
299 302 306 307 302 298 301 300 297 299 298 297 297 297 296 295 293 291 292 293 293 291 291 292 290 288 286 283 279 275 270 270 270 268 269 268 267 265 266 269 270 273 273
294 297 301 302 300 299 298 297 296 296 294 293 293 293 293 292 290 289 288 288 290 288 289 290 288 287 287 284 281 275 272 270 271 271 271 270 268 268 269 270 270 272 274
289 293 297 298 296 295 296 295 295 294 292 289 289 289 288 288 288 287 286 286 285 285 286 285 283 285 286 285 281 275 272 270 271 271 272 272 270 269 269 271 272 271 275
287 292 296 297 297 296 295 294 295 296 295 291 291 291 290 289 288 285 285 287 288 286 286 284 283 282 284 284 281 276 273 273 273 272 271 272 272 271 270 272 272 270 272
290 293 294 296 297 296 295 294 294 294 293 292 289 288 288 286 285 286 285 285 287 287 287 286 284 281 281 282 282 278 273 272 271 273 271 272 273 274 273 273 271 270 271
294 295 294 295 297 295 294 293 293 293 292 292 289 286 286 283 282 283 282 283 285 285 285 284 283 281 279 280 280 275 271 269 269 270 270 270 272 274 273 272 272 271 271
290 292 293 294 295 295 295 293 292 291 291 291 288 286 286 284 283 282 281 281 282 282 281 281 281 279 278 278 277 273 271 271 270 269 268 269 271 271 270 271 272 271 270
285 291 293 294 294 295 296 294 293 292 291 291 288 287 286 284 283 281 280 279 279 279 277 278 277 276 277 278 276 275 273 271 268 268 267 266 268 267 267 269 270 271 271
285 289 293 294 294 294 294 294 291 291 290 290 289 287 286 285 283 281 281 280 278 276 276 276 275 275 276 275 276 277 273 270 268 266 264 265 265 265 265 268 270 271 272
286 289 291 292 292 292 292 292 291 290 290 291 290 287 286 286 284 282 281 279 278 277 276 276 276 274 273 273 273 273 272 269 268 264 261 262 264 265 266 268 269 271 272
287 290 292 293 293 292 292 291 291 291 290 290 290 288 286 286 284 282 280 278 278 278 277 277 276 274 272 272 272 270 268 268 266 264 262 262 263 264 266 267 267 268 269
288 290 291 294 296 293 291 292 291 291 291 291 290 288 287 286 285 283 281 279 278 278 277 276 276 274 271 270 270 268 267 265 264 263 262 263 263 265 266 265 265 266 267
288 289 291 293 295 295 295 294 291 291 291 289 289 287 287 287 287 284 281 280 279 278 277 276 274 273 271 270 268 266 264 263 263 263 262 262 262 264 267 268 267 266 266
287 289 291 293 295 296 296 296 294 292 292 291 289 287 287 287 287 285 282 281 281 280 278 278 275 274 273 272 271 267 264 262 262 263 264 263 263 265 267 268 268 265 266
287 290 290 292 294 295 295 295 295 294 292 292 291 289 287 287 286 284 282 281 280 279 278 276 276 274 274 274 276 273 267 266 264 263 264 267 266 266 266 266 267 267 266
284 287 291 292 294 295 295 295 296 296 294 292 292 292 291 288 286 285 282 281 280 279 278 277 275 275 276 273 272 272 270 268 267 265 265 266 266 266 266 265 266 267 266
285 286 288 291 293 294 294 294 295 295 295 295 294 293 293 291 290 287 284 282 280 280 278 277 276 276 276 274 273 271 268 266 266 265 265 267 268 268 265 265 265 266 265
286 287 288 290 292 293 293 294 295 296 296 296 296 296 294 294 292 289 287 284 281 280 280 277 275 274 273 272 270 270 268 267 266 265 265 267 269 267 264 264 264 264 264
286 287 288 289 291 292 293 295 295 296 296 296 297 297 297 296 295 293 290 286 283 281 279 277 276 274 273 272 270 268 268 268 267 265 265 266 267 266 265 263 262 261 261
286 286 287 288 289 290 292 294 295 296 298 298 298 298 297 297 296 295 293 289 285 283 280 278 278 277 276 275 270 268 267 265 266 266 266 265 264 263 262 261 260 259 259
287 286 286 287 288 289 291 293 294 295 297 298 298 298 298 297 296 295 293 290 287 286 282 280 279 277 276 275 272 269 267 266 266 267 266 264 262 260 259 259 258 257 257
288 287 286 286 287 288 290 292 293 294 296 297 298 297 296 296 294 294 292 290 288 286 284 282 280 279 277 275 273 270 269 269 267 266 266 264 260 259 257 257 256 256 256
289 288 287 287 288 289 290 291 292 293 294 296 296 295 294 294 293 292 291 290 288 287 285 283 281 279 278 276 274 272 271 269 268 266 263 260 258 257 256 257 258 257 256
Height
5894 5892 5891 5890 5889 5887 5886 5884 5882 5881 5880 5878 5876 5875 5874 5872 5871 5870 5868 5867 5866 5864 5863 5862 5861 5860 5859 5858 5858 5857 5856 5856 5855 5855 5855 5854 5854 5855 5855 5854 5854 5853 5853
5891 5890 5888 5887 5886 5884 5882 5880 5879 5877 5876 5874 5873 5871 5870 5869 5867 5866 5865 5863 5862 5861 5860 5859 5858 5857 5856 5855 5854 5854 5853 5852 5852 5852 5851 5851 5851 5851 5851 5851 5850 5850 5849
5887 5886 5885 5883 5882 5880 5878 5876 5875 5873 5872 5870 5869 5868 5866 5865 5864 5862 5861 5859 5858 5857 5856 5855 5854 5853 5852 5851 5850 5850 5849 5849 5848 5848 5848 5847 5847 5847 5848 5847 5847 5846 5846
5884 5883 5881 5879 5877 5875 5874 5872 5870 5869 5868 5866 5864 5863 5862 5861 5859 5858 5856 5855 5854 5853 5852 5851 5850 5849 5848 5847 5846 5846 5845 5845 5844 5844 5844 5844 5844 5843 5843 5843 5843 5842 5841
5879 5878 5877 5875 5873 5872 5870 5868 5866 5864 5863 5861 5860 5858 5857 5856 5854 5853 5852 5851 5850 5849 5848 5847 5846 5844 5844 5843 5842 5841 5841 5840 5840 5839 5839 5839 5839 5839 5838 5838 5838 5837 5837
5874 5874 5872 5870 5869 5867 5865 5863 5861 5858 5857 5855 5854 5852 5852 5851 5849 5848 5847 5846 5845 5844 5843 5842 5840 5839 5839 5838 5837 5836 5836 5835 5835 5834 5834 5834 5834 5834 5834 5834 5833 5833 5832
5869 5869 5867 5866 5864 5861 5859 5857 5854 5852 5851 5850 5849 5847 5846 5845 5844 5843 5841 5840 5839 5839 5838 5837 5835 5834 5833 5832 5831 5831 5830 5830 5830 5829 5829 5829 5829 5829 5829 5829 5828 5828 5828
5865 5864 5862 5860 5858 5856 5853 5851 5849 5847 5846 5845 5843 5842 5840 5839 5838 5837 5836 5835 5834 5833 5832 5831 5830 5829 5828 5827 5826 5825 5825 5824 5824 5824 5824 5824 5823 5823 5823 5823 5823 5823 5823
5860 5858 5856 5855 5852 5850 5847 5845 5843 5842 5840 5838 5837 5835 5834 5833 5831 5830 5829 5828 5827 5826 5825 5825 5823 5822 5821 5821 5820 5819 5819 5819 5818 5818 5818 5818 5818 5817 5817 5817 5817 5818 5817
5854 5852 5850 5849 5847 5845 5842 5840 5838 5836 5833 5832 5830 5829 5828 5826 5824 5823 5822 5821 5820 5819 5819 5818 5817 5816 5815 5814 5813 5813 5813 5812 5812 5812 5812 5812 5812 5812 5812 5812 5812 5811 5811
5848 5846 5844 5843 5841 5839 5836 5834 5831 5829 5827 5825 5823 5821 5820 5819 5817 5816 5815 5814 5813 5812 5811 5811 5810 5809 5808 5808 5807 5807 5806 5806 5806 5806 5806 5806 5806 5806 5806 5806 5806 5806 5805
5843 5841 5839 5837 5834 5832 5829 5827 5824 5822 5820 5817 5815 5814 5813 5811 5809 5808 5807 5806 5805 5805 5804 5803 5802 5801 5801 5801 5800 5800 5800 5800 5800 5800 5800 5799 5799 5800 5800 5800 5800 5800 5799
5837 5835 5833 5831 5828 5826 5823 5820 5817 5815 5812 5810 5808 5806 5805 5802 5801 5801 5799 5798 5797 5797 5796 5795 5794 5794 5793 5793 5793 5793 5792 5792 5792 5793 5793 5793 5793 5794 5794 5794 5793 5793 5793
5831 5829 5827 5824 5822 5819 5816 5813 5811 5808 5805 5803 5801 5799 5797 5795 5794 5793 5792 5791 5790 5789 5788 5787 5786 5786 5785 5785 5785 5784 5784 5785 5785 5785 5785 5786 5786 5787 5787 5787 5787 5787 5787
5824 5822 5820 5817 5814 5811 5809 5806 5804 5801 5799 5797 5794 5792 5790 5788 5787 5785 5784 5783 5781 5780 5779 5778 5778 5777 5777 5777 5777 5776 5776 5777 5777 5777 5778 5779 5779 5779 5779 5780 5780 5780 5780
5817 5815 5813 5810 5807 5805 5802 5799 5797 5794 5792 5790 5787 5785 5783 5781 5779 5777 5776 5775 5773 5772 5771 5769 5769 5769 5769 5769 5768 5768 5768 5769 5769 5770 5771 5771 5772 5772 5772 5772 5773 5773 5773
5810 5808 5806 5803 5801 5798 5795 5793 5790 5787 5785 5782 5780 5778 5776 5774 5772 5770 5768 5767 5766 5764 5763 5761 5760 5760 5760 5760 5760 5760 5761 5761 5762 5763 5763 5764 5764 5765 5765 5765 5765 5766 5766
5803 5801 5798 5796 5793 5791 5789 5786 5783 5780 5778 5775 5773 5771 5769 5766 5764 5762 5760 5759 5757 5756 5755 5754 5753 5752 5752 5752 5752 5753 5753 5753 5754 5755 5755 5756 5756 5757 5757 5757 5758 5758 5758
5796 5794 5792 5789 5787 5784 5781 5779 5777 5774 5771 5768 5766 5763 5761 5759 5756 5754 5752 5751 5749 5748 5747 5746 5745 5745 5744 5744 5744 5744 5745 5746 5746 5747 5748 5748 5748 5749 5749 5749 5750 5750 5750
5789 5787 5785 5783 5780 5777 5775 5772 5769 5767 5764 5761 5759 5756 5753 5751 5748 5746 5744 5742 5741 5739 5738 5737 5737 5736 5736 5736 5736 5736 5737 5737 5738 5739 5739 5740 5740 5740 5741 5741 5741 5742 5742
5782 5780 5778 5775 5773 5770 5767 5765 5762 5759 5757 5754 5751 5748 5745 5743 5740 5737 5735 5733 5732 5731 5730 5729 5728 5728 5728 5728 5728 5728 5728 5729 5730 5731 5731 5731 5732 5732 5732 5733 5733 5734 5734
5774 5772 5770 5768 5765 5763 5760 5758 5755 5752 5749 5746 5743 5741 5738 5735 5732 5729 5726 5725 5723 5722 5721 5721 5720 5719 5719 5719 5719 5720 5720 5720 5721 5721 5722 5722 5723 5723 5724 5724 5725 5726 5726
5766 5764 5762 5760 5757 5755 5753 5750 5747 5744 5742 5739 5736 5733 5730 5727 5725 5722 5719 5717 5716 5714 5713 5713 5712 5712 5711 5711 5711 5711 5711 5711 5712 5712 5713 5713 5714 5714 5715 5715 5716 5717 5718
5758 5756 5754 5752 5750 5747 5745 5742 5740 5737 5734 5731 5729 5726 5723 5721 5718 5715 5713 5711 5709 5707 5706 5705 5705 5704 5703 5703 5702 5702 5702 5702 5703 5703 5704 5704 5705 5705 5706 5707 5708 5709 5710
5750 5748 5746 5744 5742 5740 5737 5735 5732 5729 5726 5724 5721 5719 5716 5714 5711 5709 5706 5704 5702 5701 5699 5698 5697 5696 5696 5695 5694 5694 5694 5694 5694 5694 5695 5695 5696 5697 5698 5700 5701 5702 5703
5742 5740 5738 5736 5734 5732 5729 5727 5724 5721 5719 5716 5713 5711 5709 5706 5704 5702 5700 5697 5696 5694 5692 5691 5690 5688 5688 5687 5686 5686 5685 5685 5685 5685 5686 5687 5688 5689 5690 5691 5693 5694 5695